Date String (YYYY-MM-DD hh:mm:ss) UTC,Instrument flags,absolute air pressure of the measurement (hPa),sample flow rate (lpm),inlet stack bypass flow (lpm),air temperature of the measurement (°C),ambient temperature measured by the external sensor (°C),aerosol sample conditioner tube jacket temperature (°C),OPC LED temperature (°C),internal box temperature (°C),relative humidity of the measurement (%),span deviation,mass concentration of particles derived from Lorenz-Mie calculation of OPC scattering (μg/m³),mass concentration of particles derived from Lorenz-Mie calculation of OPC scattering (μg/m³),mass concentration of particles derived from Lorenz-Mie calculation of OPC scattering (μg/m³)
DateTimeUTC,F1_M11,P_M11,Q1_M11,Q2_M11,T1_M11,T2_M11,T3_M11,T4_M11,T5_M11,U1_M11,ZSPAN_M11,X2_M11,X0_M11,X1_M11
2023-10-12 20:00:00,SystemResetWarning,0815.2,5.00,000.00,029.0,026.3,000.0,037.7,030.4,10.2,0000.0,0004.39,0008.46,0004.06
2023-10-12 20:01:00,SystemResetWarning,0815.2,4.99,000.00,029.0,026.5,000.0,037.7,030.4,10.2,0000.0,0004.39,0008.14,0004.06
2023-10-12 20:02:00,SystemResetWarning,0815.2,5.00,000.00,028.9,026.7,000.0,037.6,030.5,10.4,0000.0,0004.44,0008.06,0004.09
2023-10-12 20:03:00,SystemResetWarning,0815.1,5.00,000.00,028.9,026.8,000.0,037.6,030.5,10.4,0000.0,0004.54,0008.18,0004.18
2023-10-12 20:04:00,SystemResetWarning,0815.1,5.01,000.00,028.9,027.0,000.0,037.6,030.5,10.2,0000.0,0004.60,0008.26,0004.23
2023-10-12 20:05:00,SystemResetWarning,0815.2,5.00,000.00,028.9,027.1,000.0,037.6,030.5,10.1,0000.0,0004.57,0008.05,0004.21
2023-10-12 20:06:00,SystemResetWarning,0815.2,5.00,000.00,028.9,027.1,000.0,037.6,030.5,10.1,0000.0,0004.52,0008.00,0004.16
2023-10-12 20:07:00,SystemResetWarning,0815.3,4.99,000.00,028.9,027.2,000.0,037.6,030.5,10.2,0000.0,0004.45,0007.74,0004.10
2023-10-12 20:08:00,SystemResetWarning,0815.2,4.99,000.00,028.9,027.3,000.0,037.5,030.5,10.2,0000.0,0004.40,0007.16,0004.04
2023-10-12 20:09:00,SystemResetWarning,0815.2,5.00,000.00,029.0,027.3,000.0,037.5,030.5,10.2,0000.0,0004.31,0007.05,0003.97
2023-10-12 20:10:00,SystemResetWarning,0815.3,5.01,000.00,029.0,027.3,000.0,037.5,030.6,10.1,0000.0,0004.23,0006.93,0003.91
2023-10-12 20:11:00,SystemResetWarning,0815.3,5.00,000.00,029.0,027.4,000.0,037.5,030.6,10.2,0000.0,0004.16,0006.76,0003.86
2023-10-12 20:12:00,SystemResetWarning,0815.3,5.00,000.00,029.0,027.4,000.0,037.5,030.6,10.0,0000.0,0004.13,0006.76,0003.83
2023-10-12 20:13:00,SystemResetWarning,0815.3,5.00,000.00,029.0,027.4,000.0,037.5,030.6,10.1,0000.0,0004.04,0007.43,0003.78
2023-10-12 20:14:00,SystemResetWarning,0815.3,4.99,000.00,029.0,027.4,000.0,037.5,030.6,10.1,0000.0,0003.90,0007.36,0003.67
2023-10-12 20:15:00,SystemResetWarning,0815.3,5.00,000.00,029.0,027.4,000.0,037.5,030.6,10.1,0000.0,0003.69,0007.03,0003.48
2023-10-12 20:16:00,SystemResetWarning,0815.2,5.00,000.00,029.0,027.4,000.0,037.5,030.6,10.0,0000.0,0003.51,0006.72,0003.31
2023-10-12 20:17:00,SystemResetWarning,0815.2,5.00,000.00,029.0,027.4,000.0,037.5,030.6,9.9,0000.0,0003.32,0007.07,0003.12
2023-10-12 20:18:00,SystemResetWarning,0815.1,5.01,000.00,029.0,027.4,000.0,037.5,030.6,9.9,0000.0,0003.09,0006.97,0002.79
2023-10-12 20:19:00,SystemResetWarning,0815.2,5.00,000.00,029.0,027.3,000.0,037.5,030.6,9.9,0000.0,0002.70,0006.44,0002.39
2023-10-12 20:20:00,SystemResetWarning,0815.3,5.01,000.00,029.0,027.3,000.0,037.5,030.6,9.9,0000.0,0002.30,0005.87,0002.03
2023-10-12 20:21:00,SystemResetWarning,0815.3,4.99,000.00,029.0,027.3,000.0,037.5,030.6,10.0,0000.0,0001.88,0005.60,0001.64
2023-10-12 20:22:00,SystemResetWarning,0815.2,5.00,000.00,029.0,027.3,000.0,037.5,030.5,10.0,0000.0,0001.48,0005.36,0001.25
2023-10-12 20:23:00,SystemResetWarning,0815.3,4.99,000.00,029.0,027.3,000.0,037.5,030.5,9.9,0000.0,0001.07,0004.88,0000.85
2023-10-12 20:24:00,SystemResetWarning,0815.2,5.01,000.00,029.0,027.2,000.0,037.5,030.6,10.0,0000.0,0000.71,0003.34,0000.50
2023-10-12 20:25:00,SystemResetWarning,0815.2,5.00,000.00,028.9,027.2,000.0,037.5,030.6,10.0,0000.0,0000.49,0003.02,0000.28
2023-10-12 20:26:00,SystemResetWarning,0815.2,5.00,000.00,028.9,027.2,000.0,037.5,030.5,9.9,0000.0,0000.43,0002.88,0000.23
2023-10-12 20:27:00,SystemResetWarning,0815.3,5.00,000.00,028.9,027.2,000.0,037.5,030.5,10.0,0000.0,0000.32,0002.70,0000.12
2023-10-12 20:28:00,SystemResetWarning,0815.3,5.00,000.00,028.9,027.1,000.0,037.5,030.5,10.0,0000.0,0000.27,0001.78,0000.07
2023-10-12 20:29:00,SystemResetWarning,0815.4,5.00,000.00,028.9,027.1,000.0,037.5,030.5,10.0,0000.0,0000.22,0001.33,0000.06
2023-10-12 20:30:00,SystemResetWarning,0815.3,5.00,000.00,028.9,027.1,000.0,037.5,030.5,10.0,0000.0,0000.20,0001.27,0000.06
2023-10-12 20:31:00,SystemResetWarning,0815.2,4.99,000.00,028.9,027.1,000.0,037.5,030.5,10.1,0000.0,0000.18,0001.13,0000.05
2023-10-12 20:32:00,SystemResetWarning,0815.4,5.00,000.00,028.9,027.1,000.0,037.5,030.5,10.1,0000.0,0000.20,0000.84,0000.05
2023-10-12 20:33:00,SystemResetWarning,0815.4,4.99,000.00,028.9,027.1,000.0,037.5,030.5,10.0,0000.0,0000.21,0000.73,0000.05
2023-10-12 20:34:00,SystemResetWarning,0815.3,4.99,000.00,028.9,027.1,000.0,037.5,030.5,9.9,0000.0,0000.19,0000.63,0000.05
2023-10-12 20:35:00,SystemResetWarning,0815.2,5.00,000.00,028.9,027.1,000.0,037.5,030.4,10.1,0000.0,0000.19,0000.57,0000.05
2023-10-12 20:36:00,SystemResetWarning,0815.2,5.00,000.00,028.9,027.1,000.0,037.4,030.5,10.2,0000.0,0000.18,0000.51,0000.05
2023-10-12 20:37:00,SystemResetWarning,0815.3,5.00,000.00,028.8,027.0,000.0,037.4,030.4,10.1,0000.0,0000.18,0000.49,0000.05
2023-10-12 20:38:00,SystemResetWarning,0815.3,5.01,000.00,028.8,027.0,000.0,037.4,030.4,10.0,0000.0,0000.16,0000.48,0000.05
2023-10-12 20:39:00,SystemResetWarning,0815.3,5.00,000.00,028.8,027.0,000.0,037.4,030.4,10.1,0000.0,0000.19,0000.73,0000.05
2023-10-12 20:40:00,SystemResetWarning,0815.4,5.00,000.00,028.8,027.0,000.0,037.4,030.4,10.2,0000.0,0000.24,0000.84,0000.06
2023-10-12 20:41:00,SystemResetWarning,0815.4,5.00,000.00,028.8,027.0,000.0,037.4,030.4,10.3,0000.0,0000.25,0000.87,0000.06
2023-10-12 20:42:00,SystemResetWarning,0815.4,5.00,000.00,028.8,027.0,000.0,037.4,030.4,10.2,0000.0,0000.25,0000.87,0000.06
2023-10-12 20:43:00,SystemResetWarning,0815.5,5.00,000.00,028.8,027.0,000.0,037.4,030.3,10.3,0000.0,0000.24,0000.84,0000.06
2023-10-12 20:44:00,SystemResetWarning,0815.5,5.01,000.00,028.8,027.0,000.0,037.4,030.4,10.4,0000.0,0000.22,0000.78,0000.06
2023-10-12 20:45:00,SystemResetWarning,0815.5,5.00,000.00,028.8,027.0,000.0,037.4,030.4,10.4,0000.0,0000.26,0000.91,0000.07
2023-10-12 20:46:00,SystemResetWarning,0815.5,4.99,000.00,028.8,027.0,000.0,037.4,030.4,10.1,0000.0,0000.26,0000.91,0000.07
2023-10-12 20:47:00,SystemResetWarning,0815.5,4.99,000.00,028.8,027.0,000.0,037.4,030.3,10.2,0000.0,0000.26,0000.91,0000.07
2023-10-12 20:48:00,SystemResetWarning,0815.6,5.00,000.00,028.8,027.0,000.0,037.4,030.4,10.3,0000.0,0000.29,0001.00,0000.07
2023-10-12 20:49:00,SystemResetWarning,0815.6,5.00,000.00,028.8,027.0,000.0,037.4,030.3,10.3,0000.0,0000.33,0001.34,0000.08
2023-10-12 20:50:00,SystemResetWarning,0815.5,5.00,000.00,028.8,027.0,000.0,037.4,030.3,10.5,0000.0,0000.29,0001.05,0000.08
2023-10-12 20:51:00,SystemResetWarning,0815.6,5.00,000.00,028.8,027.0,000.0,037.4,030.3,10.5,0000.0,0000.28,0001.02,0000.07
2023-10-12 20:52:00,SystemResetWarning,0815.6,5.01,000.00,028.8,027.0,000.0,037.4,030.3,10.5,0000.0,0000.35,0001.84,0000.07
2023-10-12 20:53:00,SystemResetWarning,0815.6,5.00,000.00,028.8,027.1,000.0,037.3,030.3,10.5,0000.0,0000.39,0002.75,0000.07
2023-10-12 20:54:00,SystemResetWarning,0815.6,5.00,000.00,028.8,027.1,000.0,037.3,030.3,10.5,0000.0,0000.41,0004.88,0000.07
2023-10-12 20:55:00,SystemResetWarning,0815.6,5.00,000.00,028.8,027.1,000.0,037.3,030.3,10.5,0000.0,0000.42,0006.59,0000.07
2023-10-12 20:56:00,SystemResetWarning,0815.6,5.00,000.00,028.8,027.1,000.0,037.3,030.3,10.5,0000.0,0000.44,0006.69,0000.07
2023-10-12 20:57:00,SystemResetWarning,0815.6,4.99,000.00,028.8,027.1,000.0,037.3,030.3,10.6,0000.0,0000.45,0006.84,0000.07
2023-10-12 20:58:00,SystemResetWarning,0815.6,5.00,000.00,028.8,027.1,000.0,037.3,030.3,10.4,0000.0,0000.46,0006.87,0000.07
2023-10-12 20:59:00,SystemResetWarning,0815.6,5.01,000.00,028.8,027.1,000.0,037.3,030.3,10.4,0000.0,0000.45,0006.82,0000.06
